Vertical_Velocity
-1 -1 -1 -0 -0 0 0 -0 -0 -1 -1 -1 -1 -1 -0 0 -0 -1 -2 -1 -1 -2 -1 -2 -2 -2 -1 -3 -8 -1 37 4 -6 -4 -5 -1 -1 -1 -0 -1 -3 -1 -1 -3 -1
-0 -0 -1 -0 0 0 0 -0 -0 -0 -1 -0 -1 -1 -0 -0 -1 -1 -1 -2 -1 -2 -2 -2 -3 -2 1 -1 -7 -0 -37 27 -8 2 3 10 -6 3 -1 -2 -3 -4 -4 -3 2
-0 -1 -0 0 0 -0 -0 -1 -0 0 0 -0 -1 -1 -0 -0 -1 -2 -2 -1 -1 -2 -1 -2 -3 -2 3 0 -8 -3 30 -8 -18 3 -4 -6 4 -2 6 -3 -4 -3 -1 -2 -7
-0 -1 -1 -1 -0 -0 -0 -0 -1 -1 -1 -1 -1 -1 -1 -2 -1 -1 -1 -1 -2 -2 -2 -2 -3 -1 2 -1 -11 -11 -6 -8 3 2 5 12 2 8 2 4 -4 -2 -2 -1 -3
-0 -1 -1 -1 -1 -0 -1 -1 -1 -0 -1 -1 -1 -1 -1 -1 -1 -1 -0 -1 -1 -2 -3 -3 -4 0 2 -3 -9 -1 44 -2 3 7 9 7 4 -1 3 -2 -2 -2 -3 -2 -2
0 0 -0 -0 -1 -1 -1 -1 -0 -0 -0 -0 -1 -2 -1 -0 -2 -2 -2 -2 -2 -2 -2 -3 -3 -0 0 -3 2 -5 -10 -5 2 2 2 4 0 0 -0 3 1 2 -1 -2 -2
-0 -1 -1 -1 -1 -1 -1 -1 -0 -1 -0 -1 -1 -2 -0 -1 -0 -1 -0 -1 -2 -2 -3 -3 -3 -1 1 1 -4 1 4 -1 8 -10 -10 1 2 -2 42 2 0 0 -2 -0 2
-0 0 -0 -0 -0 -1 -1 -1 -1 -2 -2 -1 -2 -1 -2 -1 0 0 0 -1 -1 -1 -3 -4 -3 -2 0 0 1 1 -3 -21 3 7 -15 -6 2 38 5 -2 -2 -0 -1 -2 -3
-1 -0 0 -0 -1 -0 -1 -1 -1 -1 -1 -1 -2 -2 0 -1 -1 0 -1 -1 0 -1 -2 -2 -2 -3 0 2 1 1 -1 28 1 -20 25 0 -21 3 -2 1 -2 -1 -0 -0 -2
-2 -1 -0 -1 0 -1 -2 -2 -2 -1 0 -1 -1 -2 4 -2 -1 -0 0 -1 -1 -1 -2 -2 -3 -3 -2 -0 1 4 5 -8 -17 -18 -10 3 -2 -12 9 3 0 -1 -2 -0 -0
-0 1 1 -1 -1 -1 -0 -2 -2 -1 1 -3 1 -2 1 -1 -1 1 -0 -0 -0 -1 -2 -1 -3 -2 -3 0 -3 9 -5 24 43 -7 6 3 0 7 3 -1 1 -0 -1 -1 -2
-1 0 1 -1 -1 -1 -0 -3 1 -1 4 -4 1 1 -1 2 -0 -1 -0 0 0 -0 -1 -2 -0 -4 -3 -3 2 1 5 11 2 -4 6 1 -5 -14 -10 1 3 -1 -0 -3 -2
0 2 1 1 -2 1 1 -0 -1 -1 2 -6 -2 1 -0 -2 1 1 0 -2 1 -0 -0 -2 -0 -2 -2 -2 -0 -1 -2 9 -1 6 3 1 1 -8 10 4 -1 -1 -5 -4 -4
0 2 2 3 -1 1 1 -0 -0 -2 -3 -4 -5 4 1 -1 3 -4 5 0 -1 -0 -0 -2 1 -2 -1 -1 -1 -2 -1 5 0 2 2 -1 -1 -1 6 -10 -9 2 3 -6 -1
-1 1 0 2 0 -0 -0 -1 -0 1 -2 -2 7 -1 -1 2 -7 0 0 -0 1 1 -2 5 -2 -0 -1 1 -2 -1 -1 4 -2 -6 -8 2 -8 -15 6 11 5 -5 -11 -1 -6
-2 -1 -2 -2 -2 -1 -2 -2 -0 1 -0 -8 1 -2 -1 1 -1 -9 -1 1 1 -0 -0 1 -1 -2 2 -1 -2 1 -3 -5 4 -1 -1 -4 -4 5 -9 0 5 -9 -8 -5 1
-0 -2 -2 -2 -2 -1 0 -1 -1 4 -1 -3 -5 2 -1 1 -1 -0 3 0 1 0 1 2 2 -1 0 -1 -0 -1 -1 -3 -3 -8 -14 23 11 12 -25 5 1 -1 10 6 -1
-1 -2 -1 -0 0 -0 0 -0 3 2 1 -4 1 -5 0 1 4 -4 1 1 1 1 2 -1 -3 2 4 -0 3 -1 2 -3 -9 19 -9 1 17 -3 13 -15 1 9 -0 3 -16
-2 -1 -1 -2 -1 -0 -1 -0 4 0 -4 -3 0 3 3 -2 2 2 -3 -0 1 3 -1 2 -4 19 -9 2 -1 3 -8 8 -1 13 -1 12 -2 15 7 -7 -6 14 3 -28 -37
-3 -1 0 -1 -2 -1 0 1 2 -3 -2 2 1 2 1 5 0 -1 4 -2 -1 -1 3 3 -5 -1 4 -2 -0 -3 4 -1 -4 -7 16 -18 -6 3 -21 -6 1 -3 3 -26 -21
-2 -5 5 -0 -1 -1 -1 2 0 -4 0 2 0 2 0 -3 16 7 -1 1 2 -2 3 1 2 -2 5 -6 2 0 -2 -4 2 4 -6 14 -12 -0 -22 -0 9 -10 -27 -13 149
-2 -7 11 1 -0 -1 1 0 -1 4 -6 4 -1 1 0 -0 -3 -1 9 3 3 5 -6 1 1 -5 -6 13 -8 -2 4 -2 4 -7 -1 -17 57 -48 3 2 5 8 -7 10 3
-0 -6 5 -5 -2 -1 -0 -2 -0 1 2 -0 1 1 0 1 -1 -0 -4 2 -1 4 10 2 6 -3 -5 -4 15 -12 -10 1 -7 3 11 -2 39 -12 -10 27 34 24 -9 52 -14
-0 -5 -9 11 -1 -2 -0 2 -4 -2 8 -1 0 -0 2 2 -0 3 3 10 -6 5 1 3 -1 -6 -3 -4 49 19 -0 -2 12 -0 -1 -5 11 -10 -1 -3 -13 11 28 20 -5
3 -3 3 -4 -8 1 2 0 1 5 -7 4 1 4 0 0 1 -0 -0 11 1 -6 2 -2 -6 -0 -9 6 16 -11 15 5 -9 -10 13 27 -4 -15 -15 36 14 -28 -15 -23 14
-2 2 -3 3 -4 -3 1 7 1 4 4 4 -6 2 0 -1 0 2 -7 -7 -2 4 -4 -3 -3 -6 -9 -7 7 1 -5 -1 9 -8 7 -11 2 1 3 3 11 14 2 -22 -11
3 -8 -1 3 2 -1 3 -1 -0 -1 7 -2 6 0 4 8 -12 -3 -3 1 3 -4 -1 1 -0 -2 -9 4 3 -11 6 5 10 -6 -6 35 2 -17 -14 1 -16 3 17 38 36
Height
5883 5884 5884 5885 5885 5886 5886 5886 5887 5887 5887 5887 5887 5887 5887 5887 5887 5886 5886 5887 5886 5885 5884 5885 5884 5884 5884 5883 5880 5880 5875 5876 5876 5875 5874 5876 5876 5877 5876 5875 5874 5874 5874 5873 5873
5885 5885 5886 5886 5886 5887 5887 5887 5887 5887 5887 5887 5887 5887 5886 5886 5886 5886 5886 5885 5885 5885 5885 5885 5885 5884 5884 5883 5881 5882 5873 5871 5876 5878 5874 5877 5876 5876 5877 5876 5875 5874 5874 5874 5874
5887 5887 5887 5888 5888 5888 5888 5889 5888 5888 5888 5888 5888 5887 5886 5886 5886 5885 5885 5885 5885 5885 5885 5885 5885 5885 5884 5883 5880 5873 5873 5880 5875 5877 5867 5875 5878 5876 5878 5875 5876 5876 5877 5876 5875
5889 5889 5889 5889 5889 5889 5890 5890 5890 5890 5890 5889 5889 5888 5888 5887 5888 5885 5884 5884 5884 5885 5885 5885 5885 5885 5884 5883 5882 5883 5884 5884 5883 5881 5881 5880 5879 5881 5879 5878 5876 5877 5878 5878 5877
5889 5889 5889 5890 5890 5890 5890 5890 5890 5890 5890 5890 5889 5889 5888 5888 5887 5885 5884 5883 5883 5883 5884 5884 5884 5885 5884 5883 5884 5882 5872 5882 5885 5883 5883 5882 5881 5880 5880 5878 5878 5878 5879 5879 5878
5889 5889 5890 5890 5890 5890 5890 5890 5890 5890 5890 5889 5889 5888 5888 5888 5886 5885 5884 5883 5882 5882 5882 5882 5883 5884 5884 5883 5886 5883 5883 5883 5883 5882 5882 5882 5883 5880 5877 5877 5879 5879 5880 5879 5879
5889 5889 5889 5889 5889 5889 5889 5889 5888 5889 5889 5888 5888 5887 5887 5887 5886 5885 5884 5882 5881 5881 5880 5880 5882 5883 5884 5883 5883 5883 5882 5880 5884 5882 5878 5880 5881 5881 5871 5877 5879 5879 5880 5881 5881
5887 5887 5887 5887 5887 5887 5887 5887 5886 5886 5886 5886 5885 5885 5885 5885 5884 5884 5883 5882 5880 5879 5879 5879 5880 5881 5883 5882 5881 5880 5881 5880 5882 5881 5880 5880 5880 5878 5880 5879 5878 5879 5879 5879 5880
5884 5884 5884 5884 5883 5883 5883 5883 5883 5882 5882 5882 5882 5882 5883 5882 5882 5881 5881 5880 5879 5879 5878 5878 5878 5879 5880 5881 5881 5880 5877 5880 5879 5883 5879 5882 5878 5879 5879 5879 5879 5880 5881 5879 5878
5880 5880 5880 5879 5879 5878 5878 5878 5877 5877 5878 5877 5878 5879 5879 5878 5878 5878 5878 5878 5877 5877 5877 5877 5876 5876 5877 5878 5880 5880 5873 5868 5874 5880 5879 5881 5879 5881 5880 5878 5879 5880 5880 5880 5878
5875 5875 5874 5873 5873 5873 5873 5872 5872 5872 5872 5872 5873 5871 5873 5874 5874 5875 5875 5875 5875 5875 5874 5874 5875 5875 5875 5876 5877 5879 5876 5871 5869 5879 5881 5879 5878 5878 5878 5878 5878 5880 5879 5879 5877
5870 5869 5868 5868 5867 5866 5866 5865 5865 5864 5866 5864 5865 5866 5865 5868 5869 5869 5870 5872 5871 5871 5872 5872 5872 5873 5873 5874 5876 5877 5878 5876 5876 5876 5879 5879 5878 5874 5875 5877 5878 5878 5878 5876 5876
5865 5864 5864 5863 5863 5862 5861 5860 5859 5858 5859 5858 5858 5859 5860 5860 5861 5863 5865 5866 5867 5867 5868 5868 5870 5870 5870 5871 5872 5873 5875 5877 5873 5874 5877 5877 5878 5876 5877 5876 5873 5875 5874 5874 5875
5862 5861 5861 5860 5860 5858 5857 5857 5856 5855 5855 5854 5853 5854 5855 5855 5856 5855 5860 5860 5862 5863 5863 5865 5866 5866 5867 5868 5869 5870 5873 5874 5873 5872 5876 5874 5876 5876 5873 5872 5873 5872 5874 5872 5874
5859 5858 5857 5857 5856 5855 5854 5853 5852 5852 5851 5851 5851 5850 5850 5852 5849 5852 5852 5854 5856 5858 5859 5862 5861 5862 5863 5865 5865 5867 5870 5875 5872 5872 5873 5873 5873 5871 5871 5871 5872 5871 5870 5872 5872
5855 5855 5855 5854 5853 5853 5851 5850 5850 5850 5846 5845 5847 5845 5846 5846 5845 5844 5847 5849 5851 5852 5854 5856 5857 5858 5859 5860 5862 5864 5864 5867 5870 5870 5869 5870 5872 5869 5864 5867 5865 5865 5868 5870 5871
5851 5850 5850 5849 5849 5847 5846 5846 5846 5845 5844 5842 5839 5841 5841 5841 5841 5841 5842 5843 5846 5847 5849 5851 5853 5854 5856 5856 5857 5859 5861 5863 5866 5867 5867 5871 5873 5867 5864 5866 5860 5863 5868 5867 5868
5845 5844 5843 5842 5841 5841 5840 5840 5841 5839 5839 5836 5836 5835 5836 5836 5837 5835 5836 5838 5840 5843 5845 5847 5849 5851 5852 5853 5854 5855 5858 5861 5864 5867 5860 5864 5867 5864 5861 5860 5860 5867 5862 5868 5868
5837 5836 5836 5835 5834 5833 5833 5833 5834 5832 5831 5830 5832 5831 5832 5831 5832 5832 5831 5834 5835 5838 5840 5844 5848 5851 5845 5848 5850 5853 5853 5859 5862 5862 5860 5858 5860 5857 5858 5858 5862 5866 5858 5861 5860
5831 5830 5829 5828 5826 5826 5826 5826 5825 5824 5825 5825 5825 5826 5827 5831 5831 5831 5831 5831 5831 5833 5835 5838 5840 5844 5844 5842 5845 5846 5854 5855 5856 5858 5861 5855 5856 5855 5857 5860 5861 5858 5859 5854 5858
5825 5822 5823 5820 5819 5819 5819 5819 5817 5817 5818 5819 5818 5819 5820 5823 5829 5829 5830 5832 5831 5831 5833 5834 5834 5838 5842 5838 5840 5843 5845 5848 5854 5857 5858 5856 5851 5852 5846 5855 5858 5854 5850 5847 5831
5818 5815 5818 5813 5813 5810 5811 5809 5810 5810 5808 5811 5810 5811 5811 5813 5816 5818 5823 5826 5829 5828 5828 5830 5829 5830 5833 5839 5837 5839 5844 5844 5848 5851 5854 5854 5857 5845 5851 5853 5856 5849 5842 5844 5845
5811 5808 5806 5806 5804 5801 5801 5799 5798 5800 5799 5799 5800 5800 5801 5802 5805 5806 5809 5816 5815 5820 5819 5822 5823 5825 5828 5834 5836 5833 5836 5841 5844 5850 5851 5852 5857 5847 5847 5850 5842 5843 5836 5810 5839
5803 5799 5795 5799 5793 5793 5792 5790 5788 5789 5789 5788 5788 5789 5790 5791 5793 5796 5801 5807 5803 5809 5809 5811 5815 5818 5824 5831 5833 5830 5831 5835 5841 5844 5848 5849 5850 5845 5845 5846 5838 5839 5838 5843 5846
5793 5790 5788 5784 5781 5784 5782 5779 5778 5779 5774 5777 5776 5778 5780 5781 5782 5785 5788 5795 5795 5793 5799 5802 5805 5811 5813 5820 5823 5821 5828 5829 5831 5835 5841 5846 5840 5836 5830 5841 5843 5830 5829 5834 5844
5782 5779 5775 5775 5771 5768 5768 5768 5766 5767 5767 5766 5762 5765 5767 5768 5770 5773 5776 5777 5783 5785 5787 5792 5794 5801 5803 5807 5813 5816 5817 5816 5825 5828 5832 5832 5835 5834 5830 5831 5835 5834 5831 5832 5838
5769 5766 5764 5763 5760 5757 5756 5754 5753 5753 5754 5753 5754 5752 5754 5757 5754 5757 5762 5764 5769 5771 5776 5779 5785 5791 5793 5802 5805 5806 5810 5813 5819 5822 5827 5831 5829 5825 5825 5831 5830 5829 5828 5825 5831